LXFUN ELLX-ELLX

Flight info

Callsign LXFUN
Flight time 0h 57m
Altitude 2000
Route ELLX/06
Aircraft C172/L-VGDW/C

Departure

Time 2026-04-30 18:37
Airport Luxembourg-Findel International Airport (ELLX)

Arrival

Time 2026-04-30 19:34
Airport Luxembourg-Findel International Airport (ELLX)
Time Latitude Longitude Altitude Speed Heading
2026-04-30 18:23 49.62442 6.19715 1208 ft 0 kts 144°
2026-04-30 18:30 49.62436 6.19720 1208 ft 6 kts 155°
2026-04-30 18:31 49.62374 6.19778 1210 ft 11 kts 143°
2026-04-30 18:31 49.62225 6.19564 1197 ft 14 kts 216°
2026-04-30 18:32 49.62162 6.19575 1195 ft 0 kts 149°
2026-04-30 18:35 49.62161 6.19575 1195 ft 0 kts 149°
2026-04-30 18:35 49.62114 6.19618 1195 ft 12 kts 145°
2026-04-30 18:35 49.62101 6.19685 1198 ft 1 kts 60°
2026-04-30 18:36 49.62271 6.20145 1223 ft 61 kts 60°
2026-04-30 18:37 49.62502 6.20783 1356 ft 72 kts 63°
2026-04-30 18:37 49.62760 6.21447 1595 ft 72 kts 62°
2026-04-30 18:37 49.63031 6.22118 1795 ft 76 kts 76°
2026-04-30 18:37 49.62935 6.22953 1939 ft 85 kts 103°
2026-04-30 18:38 49.62799 6.23896 1994 ft 98 kts 101°
2026-04-30 18:38 49.62651 6.24985 2004 ft 110 kts 101°
2026-04-30 18:38 49.62488 6.26160 2001 ft 113 kts 101°
2026-04-30 18:38 49.62322 6.27356 1995 ft 114 kts 101°
2026-04-30 18:39 49.62161 6.28504 1998 ft 103 kts 101°
2026-04-30 18:39 49.62025 6.29523 1982 ft 92 kts 102°
2026-04-30 18:39 49.61907 6.30457 1983 ft 86 kts 102°
2026-04-30 18:39 49.61797 6.31343 1980 ft 82 kts 102°
2026-04-30 18:40 49.61693 6.32191 1985 ft 79 kts 101°
2026-04-30 18:40 49.61593 6.33025 1979 ft 79 kts 102°
2026-04-30 18:40 49.61495 6.33851 1983 ft 78 kts 100°
2026-04-30 18:40 49.61395 6.34687 1985 ft 80 kts 99°
2026-04-30 18:41 49.61294 6.35532 1983 ft 80 kts 98°
2026-04-30 18:41 49.61195 6.36379 1988 ft 83 kts 99°
2026-04-30 18:41 49.61091 6.37254 1996 ft 83 kts 99°
2026-04-30 18:41 49.60989 6.38137 1994 ft 83 kts 98°
2026-04-30 18:42 49.60889 6.38997 1989 ft 80 kts 99°
2026-04-30 18:42 49.60699 6.40673 1990 ft 82 kts 99°
2026-04-30 18:42 49.60602 6.41538 1989 ft 81 kts 99°
2026-04-30 18:45 49.56408 6.42374 1986 ft 90 kts 192°
2026-04-30 18:45 49.55825 6.41769 1846 ft 114 kts 225°
2026-04-30 18:45 49.55434 6.40695 1789 ft 118 kts 236°
2026-04-30 18:46 49.54883 6.39839 1688 ft 108 kts 190°
2026-04-30 18:46 49.54249 6.39449 1765 ft 101 kts 235°
2026-04-30 18:46 49.53894 6.38474 1728 ft 107 kts 251°
2026-04-30 18:46 49.54064 6.37373 1686 ft 110 kts 282°
2026-04-30 18:47 49.53812 6.36268 1580 ft 112 kts 216°
2026-04-30 18:47 49.53191 6.36132 1627 ft 86 kts 135°
2026-04-30 18:47 49.53087 6.36923 1598 ft 81 kts 63°
2026-04-30 18:47 49.53614 6.37375 1594 ft 91 kts 24°
2026-04-30 18:48 49.53953 6.37951 1665 ft 71 kts 102°
2026-04-30 18:48 49.53532 6.38178 1762 ft 83 kts 205°
2026-04-30 18:48 49.53425 6.37338 1744 ft 91 kts 318°
2026-04-30 18:48 49.54026 6.36884 1489 ft 109 kts 347°
2026-04-30 18:49 49.54577 6.36069 1547 ft 111 kts 297°
2026-04-30 18:49 49.54886 6.35091 1753 ft 90 kts 309°
2026-04-30 18:49 49.55186 6.34297 1813 ft 87 kts 308°
2026-04-30 18:49 49.55490 6.33485 1951 ft 88 kts 308°
2026-04-30 18:50 49.55845 6.32580 2006 ft 109 kts 309°
2026-04-30 18:50 49.56250 6.31558 2004 ft 114 kts 309°
2026-04-30 18:50 49.56689 6.30507 2003 ft 119 kts 308°
2026-04-30 18:50 49.57142 6.29418 1999 ft 122 kts 308°
2026-04-30 18:51 49.57594 6.28327 1993 ft 118 kts 309°
2026-04-30 18:51 49.58016 6.27294 1994 ft 114 kts 308°
2026-04-30 18:51 49.58442 6.26252 1995 ft 117 kts 308°
2026-04-30 18:51 49.58956 6.25333 1998 ft 110 kts 335°
2026-04-30 18:52 49.59573 6.24644 2003 ft 113 kts 333°
2026-04-30 18:52 49.60223 6.23918 1996 ft 117 kts 333°
2026-04-30 18:52 49.60661 6.22871 2004 ft 122 kts 276°
2026-04-30 18:52 49.60543 6.21625 2029 ft 115 kts 252°
2026-04-30 18:53 49.60334 6.20462 2026 ft 110 kts 248°
2026-04-30 18:53 49.60106 6.19349 1992 ft 106 kts 246°
2026-04-30 18:53 49.59831 6.18318 1985 ft 98 kts 226°
2026-04-30 18:53 49.59294 6.17785 1999 ft 92 kts 182°
2026-04-30 18:54 49.58707 6.17867 2024 ft 81 kts 137°
2026-04-30 18:54 49.58485 6.18543 2005 ft 73 kts 84°
2026-04-30 18:54 49.58874 6.19123 1922 ft 97 kts 23°
2026-04-30 18:54 49.59521 6.18825 1899 ft 106 kts 323°
2026-04-30 18:55 49.59977 6.17927 1866 ft 105 kts 314°
2026-04-30 18:55 49.61033 6.17034 1715 ft 79 kts 34°
2026-04-30 18:55 49.61361 6.17664 1557 ft 80 kts 65°
2026-04-30 18:56 49.61918 6.19208 1283 ft 74 kts 62°
2026-04-30 18:56 49.62142 6.19800 1206 ft 51 kts 62°
2026-04-30 18:56 49.62312 6.20255 1226 ft 62 kts 59°
2026-04-30 18:57 49.62839 6.21594 1566 ft 74 kts 60°
2026-04-30 18:57 49.62832 6.22281 1789 ft 72 kts 129°
2026-04-30 18:57 49.62361 6.22750 1901 ft 84 kts 143°
2026-04-30 18:58 49.61466 6.23401 2080 ft 86 kts 145°
2026-04-30 18:58 49.60821 6.23190 1975 ft 119 kts 220°
2026-04-30 18:58 49.60554 6.21986 1960 ft 119 kts 255°
2026-04-30 18:59 49.60228 6.19592 1985 ft 110 kts 258°
2026-04-30 19:00 49.61479 6.18024 1498 ft 98 kts 54°
2026-04-30 19:00 49.61774 6.18808 1294 ft 73 kts 62°
2026-04-30 19:00 49.62197 6.19945 1192 ft 68 kts 60°
2026-04-30 19:01 49.62720 6.21256 1625 ft 74 kts 62°
2026-04-30 19:01 49.62987 6.21961 1769 ft 77 kts 87°
2026-04-30 19:02 49.62123 6.22831 2027 ft 76 kts 148°
2026-04-30 19:02 49.61013 6.23331 2099 ft 104 kts 197°
2026-04-30 19:03 49.60417 6.21003 2018 ft 120 kts 253°
2026-04-30 19:03 49.60383 6.18596 1936 ft 111 kts 306°
2026-04-30 19:04 49.61494 6.18045 1562 ft 89 kts 62°
2026-04-30 19:04 49.62023 6.19478 1186 ft 54 kts 60°
2026-04-30 19:05 49.62509 6.20743 1450 ft 74 kts 60°
2026-04-30 19:05 49.62971 6.22076 1849 ft 76 kts 106°
2026-04-30 19:06 49.62065 6.22962 2008 ft 83 kts 143°
2026-04-30 19:06 49.61536 6.23440 2050 ft 89 kts 140°
2026-04-30 19:06 49.60536 6.22731 1963 ft 110 kts 253°
2026-04-30 19:07 49.60281 6.20434 1977 ft 108 kts 260°
2026-04-30 19:07 49.60239 6.19294 1950 ft 107 kts 282°
2026-04-30 19:08 49.61111 6.17826 1713 ft 89 kts 17°
2026-04-30 19:08 49.61900 6.19152 1243 ft 79 kts 62°
2026-04-30 19:08 49.62132 6.19790 1205 ft 53 kts 61°
2026-04-30 19:09 49.62546 6.20867 1352 ft 73 kts 60°
2026-04-30 19:09 49.62811 6.21512 1616 ft 69 kts 61°
2026-04-30 19:09 49.62887 6.22148 1780 ft 63 kts 123°
2026-04-30 19:10 49.61978 6.23166 1855 ft 93 kts 140°
2026-04-30 19:10 49.60770 6.23413 1861 ft 128 kts 227°
2026-04-30 19:11 49.60489 6.22134 1910 ft 118 kts 256°
2026-04-30 19:11 49.60165 6.19767 2043 ft 110 kts 248°
2026-04-30 19:11 49.59920 6.18647 2059 ft 110 kts 245°
2026-04-30 19:12 49.59647 6.17534 2005 ft 113 kts 244°
2026-04-30 19:12 49.59385 6.16382 1961 ft 113 kts 255°
2026-04-30 19:12 49.59407 6.15226 2067 ft 107 kts 296°
2026-04-30 19:13 49.60429 6.14758 1876 ft 90 kts 77°
2026-04-30 19:13 49.60909 6.16440 1766 ft 89 kts 67°
2026-04-30 19:13 49.61218 6.17313 1581 ft 96 kts 66°
2026-04-30 19:14 49.61546 6.18186 1487 ft 91 kts 64°
2026-04-30 19:14 49.61863 6.19062 1541 ft 92 kts 62°
2026-04-30 19:14 49.62206 6.19836 1786 ft 84 kts 60°
2026-04-30 19:14 49.62517 6.20547 1993 ft 83 kts 65°
2026-04-30 19:15 49.62805 6.21396 1944 ft 93 kts 74°
2026-04-30 19:15 49.62154 6.22822 2007 ft 89 kts 142°
2026-04-30 19:15 49.61621 6.23325 1988 ft 89 kts 141°
2026-04-30 19:16 49.61076 6.23700 2000 ft 95 kts 174°
2026-04-30 19:16 49.60536 6.22968 1907 ft 118 kts 252°
2026-04-30 19:16 49.60352 6.20596 2013 ft 112 kts 262°
2026-04-30 19:17 49.60237 6.19395 1997 ft 114 kts 255°
2026-04-30 19:17 49.60130 6.17082 1915 ft 114 kts 312°
2026-04-30 19:17 49.60846 6.16820 1725 ft 117 kts 33°
2026-04-30 19:18 49.61676 6.18556 1276 ft 106 kts 62°
2026-04-30 19:18 49.62056 6.19571 1192 ft 58 kts 60°
2026-04-30 19:18 49.62232 6.20042 1220 ft 59 kts 60°
2026-04-30 19:19 49.62494 6.20737 1246 ft 87 kts 59°
2026-04-30 19:19 49.62747 6.21407 1630 ft 66 kts 65°
2026-04-30 19:19 49.63539 6.22227 1879 ft 99 kts 346°
2026-04-30 19:20 49.64191 6.21802 1992 ft 108 kts 349°
2026-04-30 19:20 49.64942 6.21376 2001 ft 121 kts 350°
2026-04-30 19:20 49.66454 6.20525 1992 ft 111 kts 349°
2026-04-30 19:21 49.67167 6.20120 1986 ft 107 kts 349°
2026-04-30 19:21 49.68547 6.19337 1985 ft 105 kts 347°
2026-04-30 19:22 49.69944 6.18557 1983 ft 106 kts 349°
2026-04-30 19:22 49.72008 6.17394 1989 ft 106 kts 349°
2026-04-30 19:23 49.74025 6.16268 1976 ft 96 kts 349°
2026-04-30 19:24 49.75350 6.15475 1981 ft 107 kts 349°
2026-04-30 19:24 49.76048 6.15075 1984 ft 107 kts 349°
2026-04-30 19:24 49.77487 6.14258 1997 ft 112 kts 350°
2026-04-30 19:25 49.79787 6.13038 1996 ft 118 kts 351°
2026-04-30 19:26 49.81353 6.12236 1994 ft 121 kts 353°
2026-04-30 19:26 49.82750 6.10848 1320 ft 164 kts 274°
2026-04-30 19:26 49.82233 6.09595 1240 ft 115 kts 187°
2026-04-30 19:27 49.80962 6.10073 1344 ft 86 kts 153°
2026-04-30 19:27 49.79849 6.10768 1621 ft 91 kts 151°
2026-04-30 19:28 49.79265 6.11151 1804 ft 92 kts 149°
2026-04-30 19:28 49.77991 6.11887 1995 ft 108 kts 152°
2026-04-30 19:29 49.76567 6.12616 1996 ft 105 kts 155°
2026-04-30 19:29 49.75854 6.12890 1997 ft 109 kts 166°
2026-04-30 19:30 49.73556 6.13122 1993 ft 107 kts 161°
2026-04-30 19:30 49.72096 6.13722 1978 ft 109 kts 149°
2026-04-30 19:31 49.70698 6.14714 1993 ft 112 kts 149°
2026-04-30 19:31 49.69998 6.15202 1986 ft 110 kts 149°
2026-04-30 19:31 49.68627 6.16153 1986 ft 106 kts 149°
2026-04-30 19:32 49.67945 6.16626 1996 ft 108 kts 149°
2026-04-30 19:32 49.67253 6.17103 1999 ft 109 kts 149°
2026-04-30 19:32 49.66550 6.17582 1996 ft 112 kts 149°
2026-04-30 19:32 49.65838 6.18071 1996 ft 112 kts 149°
2026-04-30 19:33 49.65122 6.18563 1994 ft 113 kts 150°
2026-04-30 19:33 49.64358 6.18922 1973 ft 115 kts 175°
2026-04-30 19:33 49.63656 6.18488 1917 ft 105 kts 197°
2026-04-30 19:33 49.62999 6.18089 1771 ft 102 kts 188°
2026-04-30 19:34 49.62327 6.17995 1630 ft 92 kts 169°
2026-04-30 19:34 49.61832 6.18381 1372 ft 77 kts 119°
2026-04-30 19:34 49.62042 6.19503 1187 ft 30 kts 61°
2026-04-30 19:35 49.62131 6.19600 1195 ft 15 kts 332°
2026-04-30 19:35 49.62229 6.19516 1195 ft 17 kts 331°
2026-04-30 19:35 49.62304 6.19449 1193 ft 8 kts 331°
2026-04-30 19:35 49.62329 6.19469 1195 ft 4 kts 64°
2026-04-30 19:36 49.62354 6.19540 1197 ft 4 kts 89°
2026-04-30 19:36 49.62354 6.19542 1197 ft 0 kts 96°